Location: Frauendorf
(53.4680°N, 14.5886°E)
Time: 00:23:53
(UTC+00:00)

Daily predictions for brighter satellites

Satellite Brightness Start Highest point End
(mag) Time Altitude Azimuth Time Altitude Azimuth Time Altitude Azimuth
CENTAUR R/B 4.4 01:57:13 25° E 01:57:13 25° E 02:01:09 10° ENE
Cosmos 2344 4.1 02:24:42 51° E 02:24:42 51° E 02:31:28 10° NE
Cosmos 2297 Rocket 4.4 02:43:53 16° NNE 02:43:56 16° NNE 02:47:26 10° ENE
USA 238 DEB 4.2 02:52:05 51° ESE 02:52:05 51° ESE 02:58:29 10° NE
USA 238 4.2 02:52:10 50° ESE 02:52:10 50° ESE 02:58:34 10° NE
Cosmos 2369 Rocket 3.9 02:52:23 25° SE 02:53:51 28° ESE 02:58:32 10° NE
USA 215 3.4 02:53:46 10° ESE 02:59:30 69° ENE 02:59:30 69° ENE
Cosmos 1943 Rocket 2.9 03:12:50 49° NE 03:12:50 49° NE 03:16:59 10° NE
Cosmos 1634 Rocket 4.2 03:13:25 61° NE 03:14:14 67° ENE 03:20:25 10° SSE
CZ-2C R/B 3.7 03:09:24 10° SE 03:14:30 42° ENE 03:16:08 33° NNE
Cosmos 2227 Rocket 4.2 03:18:43 17° N 03:20:06 18° NNE 03:23:55 10° ENE
Tsikada Rocket 3.9 03:31:33 68° S 03:32:26 86° E 03:38:48 10° NNE
MOS 1-B Rocket 3.8 03:36:25 10° SSE 03:42:28 89° ENE 03:43:22 66° NNW
Cosmos 2297 3.8 03:44:29 66° N 03:44:29 66° N 03:49:31 10° NNE
CENTAUR R/B 2.4 03:44:24 71° WSW 03:45:11 83° NW 03:52:44 10° NE
Cosmos 2278 Rocket 3.7 03:51:47 23° N 03:51:47 23° N 03:54:47 10° NNE
Meteor 2-13 Rocket 4.4 03:48:20 10° S 03:54:26 85° E 04:00:33 10° NNE
SKYMED 2 4.0 03:50:37 10° SSE 03:54:15 60° SE 03:54:15 60° SE
ATLAS 5 CENTAUR R/B 4.4 03:57:04 10° SE 03:58:54 13° ESE 04:00:50 10° E
NOSS 3-2 (A) 3.4 04:04:16 57° WNW 04:05:04 62° NNW 04:11:58 10° NE
Cosmos 773 Rocket 4.0 04:04:51 47° NNW 04:06:23 78° ENE 04:11:35 10° SSE
Cosmos 1486 Rocket 4.0 04:03:40 27° SSW 04:06:35 80° ESE 04:11:53 10° NNE
Meteor 2-6 Rocket 3.9 04:05:32 47° NNW 04:07:09 80° WSW 04:12:32 10° S
H-2A R/B 3.8 04:05:19 10° SE 04:09:09 31° ENE 04:13:04 10° N
Lacrosse 4 Rocket 3.6 04:10:15 17° N 04:11:27 19° NNE 04:14:37 10° ENE
NOSS 3-2 (C) 3.3 04:12:49 49° WSW 04:14:34 77° NW 04:21:27 10° NE
Cosmos 1833 4.2 04:15:44 54° W 04:16:17 57° WSW 04:21:52 10° S
Okean 3 Rocket 3.6 04:14:53 10° S 04:19:25 81° E 04:24:01 10° NNE
Meteor 2-3 Rocket 3.9 04:20:24 47° WNW 04:20:24 47° WNW 04:25:46 10° N
SL-27 R/B 2.9 04:21:23 58° SSE 04:21:23 58° SSE 04:24:17 10° SSE
Envisat 3.0 04:16:54 10° NNE 04:22:02 82° ESE 04:27:07 10° SSW
Cosmos 1766 Rocket 3.4 04:18:10 10° S 04:22:30 86° W 04:26:52 10° N
DMSP B5D2-2 4.4 04:19:34 10° SSE 04:24:43 64° ENE 04:29:53 10° N
YAOGAN 6 4.5 04:21:21 10° N 04:22:41 21° N 04:22:41 21° N
Cosmos 1328 Rocket 3.6 04:25:33 56° SW 04:25:33 56° SW 04:29:21 10° S
Cosmos 968 Rocket 3.5 04:27:18 50° WNW 04:27:29 50° WNW 04:32:29 10° NNE
Cosmos 158 Rocket 4.4 04:24:43 22° NNW 04:27:59 59° ENE 04:33:09 10° SE
Cosmos 2297 Rocket 3.3 04:25:42 17° NNW 04:29:40 39° NE 04:34:57 10° ESE
Cosmos 2263 4.2 04:24:51 10° SSW 04:30:35 90° WNW 04:36:24 10° NNE
FALCON 9 DEB 3.7 04:31:43 47° E 04:31:43 47° E 04:33:54 10° E
Meteor 1-10 Rocket 4.1 04:30:29 18° NNW 04:34:34 68° W 04:40:04 10° S
Cosmos 2098 Rocket 3.3 04:32:19 17° SSW 04:35:43 59° WNW 04:41:15 10° N
Cosmos 1607 4.0 04:32:53 28° NW 04:36:22 74° NE 04:42:33 10° SE
Cosmos 2369 Rocket 2.1 04:34:16 26° SW 04:37:29 65° NW 04:43:06 10° NNE
Cosmos 2344 3.7 04:34:44 32° W 04:38:16 57° NNW 04:46:45 10° NE
Meteor 2-15 Rocket 4.3 04:33:11 10° NNW 04:39:18 88° W 04:45:23 10° S
Cosmos 2279 Rocket 4.1 04:34:24 10° NNW 04:40:23 52° W 04:46:20 10° SSW
FALCON 9 DEB 3.0 04:40:34 75° SW 04:40:46 80° S 04:44:10 10° E
H-2A R/B 2.6 04:38:34 10° N 04:46:53 - SSW 04:42:13 58° WNW
USA 238 DEB 3.7 04:39:34 31° W 04:42:47 59° NNW 04:49:47 10° NE
Meteor 1-31 Rocket 2.6 04:38:54 10° NNE 04:42:49 80° WNW 04:46:44 10° SSW
USA 238 3.7 04:39:38 31° W 04:42:54 60° NNW 04:49:53 10° NE
COSMO-SKYMED 1 3.0 04:39:02 10° S 04:42:52 40° WSW 04:42:52 40° WSW
Cosmos 1656 Rocket 3.5 04:37:56 11° SW 04:43:11 75° WNW 04:48:42 10° NNE
USA 215 3.5 04:37:11 10° SE 04:43:35 56° SW 04:46:50 30° WNW
Alouette 2 Rocket 3.5 04:43:05 17° N 04:45:58 67° ENE 04:49:29 10° SSE
CBERS 1 LM4 rocket 4.3 04:46:04 10° NNE 04:50:55 74° WNW 04:55:54 10° SSW
Cosmos 2263 Rocket 4.2 04:47:20 10° NNW 04:51:07 18° NNE 04:54:57 10° ENE
Cosmos 2084 Rocket 4.5 04:51:24 26° NNW 04:51:29 26° NNW 04:54:51 10° NE
CZ-4B R/B 4.0 04:47:21 10° N 04:51:47 67° WNW 04:56:13 10° SSW
IRAS Rocket 4.1 04:48:08 10° SSE 04:53:39 76° WSW 04:59:10 10° NNW
CZ-4B R/B 2.9 04:51:11 10° SE 04:54:12 34° ENE 04:57:11 10° N
Nadezhda 4 Rocket 4.1 04:48:34 10° S 04:54:45 82° E 05:01:03 10° NNE
CZ-2C R/B 3.1 04:49:46 10° SSW 04:54:50 39° W 04:57:38 23° NW
Cosmos 1408 Rocket 3.4 04:50:41 10° SSW 04:54:59 83° WNW 04:59:20 10° N
Cosmos 1943 Rocket 2.9 04:54:23 29° WNW 04:55:35 32° NW 05:00:38 10° NNE
DMSP B5D1-3 4.4 04:51:46 10° SSE 04:56:56 79° WSW 05:02:08 10° NNW
Kosmos-917 4.3 04:57:04 35° W 04:58:17 59° NNW 05:05:45 10° NE
Cosmos 1354 Rocket 3.9 04:56:16 10° SSW 05:01:33 77° WNW 05:06:55 10° NNE
Cosmos 2228 Rocket 3.3 04:58:00 10° N 05:02:31 74° ENE 05:07:02 10° SSE
Geosat FO 4.3 05:01:25 10° SSE 05:04:44 82° WSW 05:06:16 30° NW
Cosmos 1743 Rocket 3.8 05:00:25 10° S 05:04:46 71° E 05:09:07 10° NNE
Cosmos 2227 Rocket 3.0 05:00:32 12° NNW 05:05:36 47° NE 05:11:04 10° ESE
Cosmos 1862 3.9 05:07:19 30° W 05:07:56 32° WNW 05:11:32 10° N
Cosmos 1515 Rocket 3.9 05:06:35 22° NW 05:08:58 40° W 05:13:01 10° SSW
ADEOS 3.5 05:05:46 10° NNE 05:11:01 79° WNW 05:16:15 10° SSW
SJ-7 4.4 05:06:49 10° NNE 05:11:04 83° WNW 05:15:12 10° SSW
Landsat 5 4.4 05:07:09 10° SSW 05:11:07 30° W 05:12:33 25° WNW
Cosmos 1092 Rocket 4.4 05:06:09 10° S 05:12:21 69° E 05:18:40 10° NNE
SJ 16-02 1.4 05:10:04 10° SSW 05:14:27 80° ESE 05:18:51 10° NNE
Meteor 1-19 Rocket 4.3 05:09:29 10° NNW 05:15:10 78° ENE 05:20:39 10° SSE
BREEZE-M DEB (TANK) 4.0 05:16:52 19° WSW 05:19:14 57° S 05:28:47 10° ESE
Meteor 2-19 Rocket 4.4 05:15:12 10° SSW 05:21:13 65° WNW 05:27:16 10° N
Timation 1 Rocket 4.5 05:16:01 12° NNW 05:21:34 78° NE 05:27:33 10° SE
NOAA 11 4.1 05:17:06 10° NNE 05:22:35 71° WNW 05:28:02 10° SSW
Cosmos 1602 3.9 05:20:28 10° S 05:24:15 72° E 05:28:05 10° NNE
Cosmos 1538 Rocket 4.1 05:20:40 14° NW 05:25:05 55° WSW 05:30:08 10° S
COSMOS 2487 2.8 05:23:40 24° NW 05:25:14 41° WSW 05:28:24 10° S
CZ-4C R/B 4.5 05:24:56 10° SW 05:26:27 17° WSW 05:26:27 17° WSW
CZ-2C R/B 2.8 05:25:22 10° NNE 05:30:13 74° WNW 05:35:16 10° SSW
Cosmos 1500 Rocket 3.6 05:28:08 10° SSW 05:32:34 62° WNW 05:37:02 10° N
SMAP 3.3 05:28:23 10° NNE 05:33:04 73° ESE 05:37:43 10° S
OPS 6432 4.5 05:31:52 23° WNW 05:33:26 50° SW 05:36:37 10° SSE
GENESIS II 4.3 05:31:41 19° NW 05:34:23 60° SW 05:38:17 10° SSE
Cosmos 2278 Rocket 4.0 05:33:39 11° NW 05:36:00 14° N 05:38:59 10° NNE
CENTAUR R/B 3.3 05:31:36 15° W 05:36:50 43° NNW 05:44:21 10° ENE
CZ-4B R/B 2.6 05:34:42 10° N 05:38:14 57° WNW 05:41:45 10° SSW
H-2A R/B 3.2 05:33:44 10° NNE 05:38:29 46° E 05:43:12 10° S
Sich 1 3.1 05:34:23 10° S 05:38:40 78° E 05:42:57 10° NNE
FALCON 9 DEB 2.8 05:37:32 20° W 05:39:23 68° SSW 05:42:16 10° ESE
Meteor 1-27 Rocket 4.3 05:34:44 10° NNW 05:39:49 35° W 05:44:58 10° SSW
Cosmos 2219 3.4 05:34:55 10° NNW 05:40:36 74° NE 05:46:17 10° SE
Cosmos 1707 Rocket 3.6 05:36:29 10° N 05:40:57 88° E 05:45:25 10° S
FALCON 9 DEB 2.9 05:40:01 18° W 05:41:54 58° SSW 05:44:42 10° ESE
FALCON 9 DEB 3.0 05:40:11 18° W 05:42:04 55° SSW 05:44:51 10° ESE
ATLAS 5 CENTAUR R/B 1.5 05:38:35 10° SW 05:42:32 80° SE 05:47:06 10° NE
Meteor PRIRODA 3.9 05:39:34 10° N 05:43:03 44° WNW 05:46:31 10° SW
Cosmos 1805 Rocket 3.5 05:40:19 10° SSW 05:44:42 76° WNW 05:49:05 10° N
H-2A R/B 2.6 05:40:58 10° SSW 05:45:01 39° W 05:49:11 10° NNW
Cosmos 1680 Rocket 3.6 05:40:37 10° NNW 05:45:58 86° ENE 05:51:16 10° SSE
Cosmos 1500 3.2 05:42:38 10° S 05:46:27 83° E 05:50:16 10° NNE
USA 32 4.3 05:42:08 10° NNW 05:47:09 47° W 05:52:10 10° SSW
Cosmos 1777 Rocket 4.0 05:43:58 10° SW 05:49:07 58° WNW 05:54:21 10° NNE
Lacrosse 4 Rocket 2.1 05:46:38 10° NNW 05:51:02 57° NE 05:55:27 10° SE
Cosmos 1862 Rocket 3.8 05:49:41 10° N 05:54:01 73° ENE 05:58:21 10° SSE
Meteor 2-14 Rocket 4.5 05:49:28 10° SSW 05:55:39 85° W 06:01:50 10° N
Okean O Rocket 3.4 05:52:14 10° NNE 05:56:22 37° E 06:00:27 10° SSE
NOSS 3-2 (A) 4.4 05:51:40 12° WNW 05:57:09 37° N 06:03:59 10° ENE
Cosmos 1340 Rocket 3.3 05:53:27 10° SW 05:57:10 37° WNW 06:00:56 10° N
Cosmos 923 Rocket 4.2 05:55:05 10° NNW 06:00:21 61° WSW 06:05:37 10° S
Envisat 4.2 05:56:46 10° N 06:00:31 21° NW 06:04:13 10° WSW
Cosmos 2026 Rocket 4.0 05:54:22 10° SSW 06:00:41 72° WNW 06:06:58 10° N
NOAA 6 4.0 05:56:38 10° NNE 06:01:46 76° WNW 06:06:52 10° SSW
Timation 2 Rocket 4.3 05:55:07 10° NNW 06:01:49 74° NE 06:08:10 10° SE
FALCON 9 DEB 3.1 06:03:15 10° W 06:06:04 56° SSW 06:08:55 10° ESE
ATLAS 3B R/B 2.7 05:59:40 10° SW 06:06:18 90° SE 06:13:19 10° NE
NOSS 3-2 (C) 4.2 06:00:38 10° W 06:06:27 39° NNW 06:13:16 10° ENE
Cosmos 1553 Rocket 3.9 06:00:52 10° NNW 06:06:56 73° W 06:13:00 10° S
Cosmos 2082 4.1 06:02:02 10° NNW 06:07:40 63° NE 06:13:18 10° SE
S3M 4.2 06:02:20 10° N 06:08:46 82° E 06:15:11 10° SSE
Cosmos 1939 Rocket 3.3 06:08:17 10° N 06:11:57 37° WNW 06:15:33 10° SW
Meteor 1-25 Rocket 4.3 06:06:44 10° SSW 06:12:13 54° WNW 06:17:43 10° N
Cosmos 2297 Rocket 2.5 06:08:25 10° NW 06:13:57 54° WSW 06:19:26 10° S
PSLV R/B 4.5 06:11:21 10° SSW 06:15:11 39° W 06:19:04 10° NNW
Cosmos 1666 2.6 06:11:53 10° SSW 06:15:40 85° WNW 06:19:27 10° N
FALCON 9 DEB 3.3 06:14:06 10° W 06:17:29 70° SSW 06:20:53 10° ESE
Cosmos 1174 3.6 06:16:32 10° WSW 06:19:27 41° NW 06:22:42 10° NNE
Meteor 2-21 Rocket 4.5 06:14:42 10° SSW 06:20:53 75° WNW 06:27:06 10° N
